Probability
2 1 2 5 4 2 2 5 7 8 8 7 6 6 7 6 5 5 7 11 13 12 10 8 8 8 7 6 6 5 5 5 4 3 3 2 1 1 2 2 1 1 0
2 1 1 3 3 2 3 6 8 9 8 8 7 8 9 8 7 6 7 10 11 11 10 9 10 9 8 6 6 6 7 7 5 3 3 3 1 0 1 1 2 2 1
1 0 0 1 1 1 3 7 10 9 8 8 9 11 12 12 10 8 8 9 9 9 10 12 13 11 8 6 7 8 9 8 7 5 4 5 3 1 1 1 1 2 3
0 0 0 0 0 0 2 6 9 8 6 7 11 13 14 14 12 9 8 7 8 9 11 15 15 11 8 6 7 7 8 8 7 6 6 6 5 3 2 2 2 3 3
0 1 2 2 1 1 3 5 7 6 5 5 9 12 14 14 12 8 5 4 7 9 11 14 14 10 7 7 7 8 8 8 7 7 7 6 5 4 3 3 2 2 3
0 1 3 4 3 2 4 6 6 5 5 4 5 8 11 12 10 6 3 3 5 8 10 12 12 9 7 7 8 9 9 9 7 7 6 5 3 2 2 2 2 2 3
0 0 1 3 2 3 5 7 6 6 5 4 4 6 8 8 7 6 4 3 3 6 9 10 11 11 9 9 9 9 9 8 7 6 6 4 2 1 1 2 3 3 2
0 0 0 1 1 4 8 9 8 7 6 5 5 6 6 5 4 4 4 3 4 6 8 8 11 14 13 11 11 9 8 8 8 8 6 5 3 2 2 4 5 3 1
0 0 1 1 2 5 10 12 11 9 8 7 6 5 5 5 3 3 3 3 5 7 7 7 11 15 16 16 15 12 9 9 10 10 9 7 7 6 6 9 8 4 1
1 1 3 3 3 6 10 12 11 11 10 9 8 7 8 7 5 4 3 3 4 6 7 8 11 15 17 18 19 17 13 10 10 11 10 9 8 8 8 9 8 5 3
3 4 5 5 4 5 7 9 10 11 11 12 11 10 10 9 8 8 5 3 3 4 7 10 13 17 19 19 18 17 14 11 10 9 9 9 7 5 4 4 4 4 3
5 7 7 6 5 5 6 7 8 9 11 13 14 12 11 9 10 10 8 5 4 4 7 13 16 19 21 20 16 13 11 10 8 7 7 7 6 4 2 2 3 4 4
6 8 9 9 9 7 6 6 5 6 9 12 13 12 10 8 8 9 9 9 7 5 7 11 15 19 21 21 15 9 7 6 5 5 6 6 6 5 3 3 5 6 6
7 10 13 14 12 10 8 7 6 6 9 10 10 10 9 8 7 7 8 10 9 6 5 8 12 17 19 19 15 9 7 5 4 4 4 4 5 5 3 3 5 5 5
11 14 16 16 15 13 11 10 9 9 10 9 9 10 11 10 8 8 9 11 10 7 5 8 12 16 18 16 13 12 11 8 4 3 2 3 4 4 2 1 1 2 2
14 16 18 17 16 14 12 11 10 10 10 10 11 13 14 13 10 10 12 14 13 11 9 11 15 17 17 15 14 16 15 11 5 2 1 2 3 2 1 0 0 0 0
16 18 19 18 15 13 10 10 10 10 10 11 13 15 16 15 12 10 12 16 18 17 14 14 16 16 15 15 17 17 16 11 6 2 0 0 1 1 0 0 0 0 0
19 20 21 19 15 12 10 9 10 10 10 10 11 13 15 15 15 12 11 15 16 17 17 16 16 16 16 16 18 17 14 11 8 4 1 0 0 0 0 0 0 0 0
25 24 23 21 17 13 11 11 11 10 10 10 10 12 14 16 17 15 12 12 11 13 17 18 16 16 17 17 17 16 13 12 9 6 3 1 0 0 0 0 0 0 0
28 27 25 23 20 15 13 12 12 12 11 10 11 13 15 17 18 16 13 12 11 12 15 16 16 16 16 17 17 14 13 13 11 8 5 2 1 1 1 0 0 0 0
29 28 26 24 22 18 14 12 12 13 15 16 16 17 17 18 16 13 10 10 12 14 15 15 15 15 15 16 15 13 12 12 12 11 8 5 4 3 3 2 1 0 0
32 30 27 25 24 19 13 9 10 14 20 22 22 21 19 17 14 11 8 6 8 12 14 14 13 13 14 14 13 10 10 10 11 12 12 9 6 4 4 4 1 0 0
36 33 30 28 26 19 10 5 7 14 21 24 25 24 20 16 13 12 10 7 6 8 11 11 10 11 13 15 13 10 9 10 12 14 13 11 8 5 4 3 1 0 0
35 34 33 31 28 21 10 3 5 11 17 20 22 23 21 17 14 14 14 13 11 10 9 8 8 9 10 12 12 11 11 12 14 14 13 11 9 7 4 2 1 0 0
33 33 32 32 29 22 12 4 3 9 14 16 19 21 19 16 12 11 13 15 14 12 9 6 5 4 4 5 6 9 12 13 13 13 12 10 9 8 5 3 2 1 0
32 32 31 30 29 23 13 4 4 9 13 15 18 19 17 13 9 8 11 12 12 11 9 5 2 1 1 1 2 6 10 11 11 11 11 10 9 8 6 4 3 2 1
Wind_Speed
2 2 2 1 1 1 2 2 1 1 1 1 1 1 1 1 2 4 4 8 7 7 7 7 7 7 6 5 5 5 6 6 6 6 7 7 6 6 6 7 8 8 8
2 1 1 1 1 1 1 1 2 1 1 1 1 1 1 1 2 3 5 6 8 7 6 6 7 7 6 5 5 5 5 6 6 6 6 6 6 6 6 6 7 8 8
2 1 1 1 0 1 2 1 1 1 2 2 2 2 1 2 2 3 4 5 6 7 7 7 6 6 6 6 5 4 4 4 5 5 6 6 6 6 6 6 6 6 6
2 1 0 1 1 1 1 2 1 1 1 1 1 1 1 2 2 3 3 4 4 5 6 8 7 6 6 6 5 5 4 4 4 4 5 5 5 5 5 6 5 5 5
2 0 1 0 1 1 0 1 1 1 1 1 1 2 2 2 2 2 2 3 4 5 5 7 9 7 7 6 6 5 4 4 4 5 5 5 4 4 4 5 5 5 5
2 0 1 0 0 0 0 1 1 1 1 1 2 1 1 2 2 2 2 2 3 5 6 6 6 6 8 6 6 5 5 4 4 4 4 4 4 4 4 5 4 4 5
2 1 1 0 0 1 1 1 1 1 1 1 0 0 1 2 2 2 2 1 2 3 4 5 5 4 5 8 7 6 5 5 4 4 4 4 4 4 4 5 5 5 5
1 2 1 0 1 1 1 0 1 1 1 0 0 1 1 1 1 2 2 2 2 2 2 4 4 4 4 4 5 7 6 6 5 5 5 5 4 4 4 4 5 5 5
1 1 1 1 0 0 1 1 1 1 1 1 0 0 0 0 1 0 2 2 2 1 1 2 3 4 4 4 5 7 7 6 6 6 5 4 4 4 4 4 5 5 5
1 1 1 1 1 1 1 1 1 1 1 2 1 0 1 1 0 1 1 1 2 1 2 1 2 2 3 3 4 7 8 7 6 5 5 4 4 3 4 4 4 5 5
2 1 1 1 1 0 0 0 1 1 1 2 2 1 1 0 1 1 1 2 1 2 1 1 1 1 2 2 3 6 9 8 7 6 5 5 4 4 4 4 4 4 4
2 2 2 1 1 0 0 1 1 1 1 2 2 2 1 1 1 1 1 2 1 1 1 1 1 1 1 2 2 5 8 8 7 6 5 4 4 4 4 4 4 4 4
2 2 2 1 1 1 0 0 0 1 1 1 2 2 2 2 1 1 1 2 2 1 1 1 2 1 1 1 2 5 6 8 7 7 6 5 4 4 4 4 4 4 4
2 3 3 2 1 1 0 1 0 1 1 1 2 2 2 2 2 2 1 1 2 2 1 2 1 2 1 2 3 6 4 8 8 7 6 6 5 5 5 4 4 3 3
2 3 3 2 2 1 1 0 0 1 1 1 2 2 2 2 2 2 1 1 1 2 2 1 1 2 1 2 5 4 3 6 8 8 7 7 6 5 5 5 5 4 4
1 2 3 3 2 2 2 1 1 0 1 1 2 2 2 2 3 2 2 1 1 2 2 1 1 1 1 1 4 3 4 8 10 10 9 8 7 6 5 6 5 5 4
3 2 2 2 2 2 2 1 1 1 1 1 2 2 2 3 3 3 3 2 1 1 2 2 1 1 1 2 2 3 3 5 6 10 10 9 8 7 6 5 5 5 4
3 3 3 3 3 2 2 1 2 1 2 2 2 2 3 3 3 3 3 3 2 2 2 2 2 2 2 3 3 4 3 4 4 8 11 10 9 8 7 7 6 5 5
3 3 3 3 2 2 2 2 2 2 2 2 2 2 2 3 3 2 3 3 3 3 2 2 2 2 2 2 2 3 3 2 4 5 9 9 9 9 8 8 7 6 6
3 3 3 3 3 3 2 2 2 3 3 3 2 2 2 2 3 3 3 3 3 4 3 3 2 1 2 2 1 2 2 2 2 2 2 5 7 8 8 8 7 7 6
4 3 3 3 3 3 3 2 2 3 3 3 2 2 2 1 1 2 3 3 4 3 3 3 3 2 2 1 2 2 3 2 2 1 1 2 3 4 5 6 7 8 8
3 3 4 4 4 3 3 3 2 3 3 3 3 2 3 2 2 3 4 5 5 4 3 3 3 3 2 2 2 3 2 2 2 1 1 3 3 3 3 4 6 8 8
4 4 4 4 3 3 3 3 3 3 3 3 2 2 3 1 1 2 4 5 5 5 5 3 3 4 3 2 3 4 3 3 3 3 2 4 3 3 2 3 7 9 9
4 4 4 4 4 3 4 4 3 4 3 3 3 2 2 1 1 2 3 3 3 3 4 3 3 4 3 2 3 4 4 4 4 3 2 3 2 2 2 2 6 8 8
3 3 3 3 3 3 4 4 3 3 3 3 3 2 2 1 1 2 2 3 3 3 3 3 3 4 4 4 3 3 3 3 3 2 1 1 1 1 0 1 3 7 7
3 3 3 3 4 3 4 4 4 3 3 3 3 2 1 1 1 1 2 3 3 3 3 3 3 4 5 5 5 4 3 3 3 2 1 1 1 0 1 1 1 2 3
Wind_Direction
111 118 118 151 167 142 171 188 177 189 205 220 221 180 191 107 118 125 137 148 145 148 152 157 164 168 172 180 191 203 209 209 208 208 209 212 212 211 213 219 219 218 222
108 103 116 142 148 166 175 192 197 196 219 189 204 160 175 129 132 143 143 152 159 158 157 160 168 172 174 179 189 199 208 213 210 208 207 209 213 215 218 219 222 220 217
116 120 130 167 174 218 180 192 214 205 205 200 193 172 186 172 148 142 151 161 163 170 169 165 165 170 177 182 190 197 205 212 214 214 214 214 216 219 222 224 223 224 222
112 136 156 168 223 231 201 190 182 225 216 196 176 183 177 164 170 168 176 170 165 167 173 174 171 172 176 179 184 189 197 204 207 208 208 211 216 224 226 222 219 221 224
120 147 166 191 241 201 198 234 122 229 240 243 201 184 185 169 177 177 186 176 165 159 162 176 180 181 186 186 186 187 190 200 200 202 206 210 212 222 230 225 225 230 233
113 36 199 211 297 67 38 25 12 271 221 252 258 160 183 183 182 175 196 181 167 170 171 165 176 190 193 191 191 191 194 199 201 202 206 212 215 219 223 220 221 231 238
143 199 9 111 121 71 42 21 358 278 246 214 274 228 202 204 179 172 168 191 182 175 162 163 178 178 184 194 198 197 199 203 205 205 210 214 221 224 223 225 225 230 237
122 133 101 309 73 115 136 69 276 292 289 149 238 267 209 217 228 181 161 190 195 182 169 179 180 171 172 166 184 195 199 205 208 210 214 218 222 226 229 228 225 228 234
140 84 105 66 51 182 143 206 258 279 287 278 210 73 5 4 295 207 186 180 165 191 206 187 183 178 178 160 168 187 197 203 207 212 212 211 218 226 228 227 225 224 225
153 121 110 100 23 22 76 259 105 296 289 293 281 131 201 128 286 312 285 170 158 195 241 236 202 177 168 164 155 164 183 194 199 206 209 211 215 219 225 228 226 223 225
155 130 117 119 131 74 100 327 44 333 320 314 321 311 309 255 263 237 280 271 232 200 187 220 249 161 141 161 170 167 174 186 191 198 206 214 216 216 220 222 227 230 229
162 146 133 128 131 116 25 22 44 313 329 333 330 326 330 299 290 286 263 263 257 232 185 186 207 198 177 147 178 163 172 178 186 194 201 209 214 218 225 227 226 227 227
165 153 148 154 159 171 196 122 79 310 300 315 316 308 309 298 288 287 267 271 273 262 221 198 183 175 192 130 156 178 178 177 184 192 197 206 216 221 223 227 225 228 234
163 149 150 160 171 187 199 86 197 252 269 287 291 301 305 302 302 291 277 288 294 283 253 239 167 171 163 156 181 191 188 185 190 193 197 206 213 219 222 222 221 224 231
171 146 154 158 161 159 161 136 219 280 298 280 291 293 292 296 292 286 284 265 260 283 282 248 207 194 193 149 169 198 175 195 198 200 202 207 213 219 221 221 220 222 230
158 159 164 165 173 178 179 188 222 233 279 276 267 297 309 303 306 301 290 271 256 259 272 281 262 233 247 241 192 202 190 191 201 205 206 207 207 210 218 221 222 226 231
174 170 165 164 166 181 173 181 244 231 255 282 292 293 298 300 307 313 310 299 279 261 263 286 304 308 223 250 223 232 213 200 204 207 207 207 206 205 212 218 223 223 227
180 176 173 176 186 184 180 195 240 263 260 259 279 302 303 296 293 299 304 305 297 284 268 276 277 276 253 234 234 239 237 229 208 204 204 202 203 203 206 210 216 218 221
184 185 178 184 198 191 196 220 229 248 266 267 266 281 294 303 302 297 293 302 299 299 284 270 265 264 267 257 251 262 257 252 251 208 196 198 204 204 206 207 209 213 215
190 191 187 196 200 189 209 232 240 245 252 263 273 276 280 287 295 295 292 302 300 298 291 286 280 272 286 296 271 267 274 258 267 258 208 197 202 205 207 206 205 208 211
193 185 188 203 210 200 209 211 240 244 251 258 258 258 246 231 257 287 298 310 307 301 293 289 283 286 289 308 294 280 274 280 277 265 247 218 199 202 207 210 210 211 209
189 184 197 204 216 214 186 187 227 255 251 253 255 258 243 213 230 251 272 278 274 278 295 297 293 292 288 290 294 287 284 283 276 247 245 258 215 205 202 194 197 198 202
193 196 200 193 195 203 195 193 218 252 249 251 257 260 269 263 230 268 264 270 278 270 257 267 283 289 291 292 284 284 279 271 266 264 241 252 223 217 209 196 188 193 198
195 199 201 196 197 202 189 197 216 241 244 247 250 252 252 269 286 306 286 279 271 281 265 251 262 276 286 281 266 267 268 266 259 254 233 250 248 236 212 179 191 195 199
191 198 193 193 193 195 186 188 199 240 242 248 245 246 244 213 314 321 285 287 293 298 296 284 276 279 277 274 269 288 284 279 275 260 247 236 260 269 241 218 202 191 191
195 202 190 189 190 183 177 178 192 240 250 248 242 211 151 137 278 305 284 281 282 291 301 296 279 272 262 259 248 238 264 276 280 275 243 238 251 246 262 245 141 165 192